Regional Weather Roundup
Issued by NWS

Home | Current Version | Previous Version | Graphics & Text | Print | Product List | Glossary On
Versions: 1 2 3 4 5 6 7 8 9 10 11 12 13 14 15 16 17 18 19 20 21 22 23 24 25 26 27 28 29 30 31 32 33 34 35 36 37 38 39 40 41 42 43 44 45 46 47 48 49 50
000
ASUS43 KMKX 291000
RWRWI

WISCONSIN REGIONAL WEATHER ROUNDUP
NATIONAL WEATHER SERVICE MILWAUKEE/SULLIVAN WI
500 AM CDT MON AUG 29 2016

NOTE: "FAIR" INDICATES FEW OR NO CLOUDS BELOW 12,000 FEET WITH NO
SIGNIFICANT WEATHER AND/OR OBSTRUCTIONS TO VISIBILITY.

WIZ001-002-006>008-014>016-023>028-291100-
NORTHWEST WISCONSIN

CITY           SKY/WX    TMP DP  RH WIND       PRES   REMARKS
SUPERIOR ARPT  HVY RAIN  66  64  93 N23G29    30.22R
ASHLAND        CLOUDY    65  64  97 S5        30.14F
HAYWARD        CLOUDY    68  65  90 SW7       30.18R
SIREN          CLOUDY    69  67  93 S5        30.15R
CUMBERLAND     CLOUDY    63  63 100 S5        30.18F FOG
RICE LAKE      CLOUDY    65  64  94 CALM      30.19F
CHETEK         NOT AVBL
LADYSMITH      CLOUDY    66  64  94 SE3       30.21F
EAU CLAIRE     NOT AVBL
MENOMONIE      CLEAR     64  64  99 SE5       30.19R FOG
NEW RICHMOND   CLEAR     67  67 100 SE6       30.17S
OSCEOLA        CLEAR     68  68 100 SE8       30.18S
$$

WIZ003>005-009-010-017-018-291100-
NORTH CENTRAL WISCONSIN

CITY           SKY/WX    TMP DP  RH WIND       PRES   REMARKS
MANITOWISH WTR NOT AVBL
ARBOR VITAE    CLOUDY    64  63  94 SE3       30.23S
WOODRUFF       CLOUDY    64  63  94 SE3       30.23S
RHINELANDER    CLOUDY    62  62 100 CALM      30.25S
EAGLE RIVER    CLOUDY    61  61 100 CALM      30.25S FOG
LAND O LAKES   CLOUDY    61  61 100 CALM      30.25S FOG
PHILLIPS       CLOUDY    65  64  97 S6        30.21S
TOMAHAWK       CLOUDY    61  60  97 CALM      30.25R FOG
MEDFORD        CLOUDY    64  64 100 SE3       30.23S
MERRILL        CLOUDY    61  61 100 CALM      30.24F
$$

WIZ029-030-035-036-043>047-291100-
CENTRAL WISCONSIN

CITY           SKY/WX    TMP DP  RH WIND       PRES   REMARKS
WAUSAU         CLOUDY    64  63  96 E6        30.22F
MOSINEE        CLOUDY    63  63 100 SE5       30.24F FOG
MARSHFIELD     CLEAR     65  63  93 S5        30.22S
STEVENS POINT  CLOUDY    63  63 100 CALM      30.24F
WAUPACA        CLOUDY    67  67  99 CALM      30.24S
WAUTOMA        MOCLDY    65  64  97 NE3       30.25R
WISC RAPIDS    CLOUDY    68  68 100 S3        30.24R
CAMP DOUGLAS   FOG       63  63 100 S2        30.22S VSB 1
$$

WIZ011>013-019>022-031-037>040-048>050-291100-
NORTHEAST WISCONSIN

CITY           SKY/WX    TMP DP  RH WIND       PRES   REMARKS
ANTIGO         FOG       63  63 100 S7        30.26S VSB 1/2
SHAWANO        MOCLDY    65  62  90 CALM      30.25S
OCONTO         NOT AVBL
STURGEON BAY   FOG       62  61  96 S3        30.26S VSB 1/4
GREEN BAY      CLOUDY    64  64 100 CALM      30.24S
MANITOWOC      FOG       59  57  94 W8        30.25S VSB 3/4
APPLETON       CLOUDY    68  64  88 CALM      30.23R
CLINTONVILLE   CLOUDY    63  63 100 CALM      30.24S
OSHKOSH        MOCLDY    64  62  93 S5        30.23F
$$

WIZ032>034-041-042-053>061-291100-
SOUTHWEST WISCONSIN

CITY           SKY/WX    TMP DP  RH WIND       PRES   REMARKS
LA CROSSE      CLEAR     67  67 100 SE6       30.19R
SPARTA         CLEAR     59  59 100 CALM      30.22R
VIROQUA        CLEAR     66  66 100 S5        30.23R
BOSCOBEL       FOG       67  66  97 CALM      30.21S VSB 1/4
PRAIRIE DU CHI CLEAR     68  66  92 CALM      30.19F
PLATTEVILLE    CLEAR     65  65 100 NE3       30.22S
$$

WIZ056-057-062-063-064-067-068-291100-
SOUTH CENTRAL WISCONSIN

CITY           SKY/WX    TMP DP  RH WIND       PRES   REMARKS
REEDSBURG      NOT AVBL
BARABOO/DELLS  FOG       64  63  94 CALM      30.23R VSB 1
LONE ROCK      FOG       63  63 100 CALM      30.23R VSB 1/4
MINERAL POINT  CLEAR     68  68 100 SE5       30.23S FOG
MADISON        CLEAR     65  65 100 CALM      30.24R FOG
MIDDLETON      CLOUDY    69  69 100 SE5       30.25R
WATERTOWN      PTCLDY    64  64 100 E3        30.23S FOG
MONROE         FOG       66  66 100 E3        30.24R VSB<1/4
JANESVILLE     CLEAR     68  66  94 CALM      30.22S FOG
$$

WIZ051-052-058>065-066-070>072-291100-
SOUTHEAST WISCONSIN

CITY           SKY/WX    TMP DP  RH WIND       PRES   REMARKS
MILWAUKEE      FOG       67  66  97 CALM      30.24R VSB 1/4
WAUKESHA       PTCLDY    61  61 100 CALM      30.26R FOG
MILWAUKEE/TIMM CLEAR     63  59  88 CALM      30.26R FOG
RACINE         CLEAR     65  64  97 CALM      30.25S FOG
BURLINGTON     FOG       60  60  99 CALM      30.24R VSB 1/2
KENOSHA        FOG       64  63  96 N3        30.24S VSB 3/4
FOND DU LAC    CLEAR     64  62  93 CALM      30.24S
SHEBOYGAN      FOG       59  57  93 CALM      30.25S VSB 1/4
WEST BEND      CLEAR     59  59 100 CALM      30.25S FOG
JUNEAU         CLOUDY    66  64  93 CALM      30.25F
$$

LSZ147-162-291100-
LAKE SUPERIOR

STATION/POSITION TIME  TEMP    WIND        PRES    WAVE
                       AIR SEA DIR/SP/G            HT/PER
                 (UTC) (F)     (DEG/KT/KT) (MB)    (FT/S)
W MID LAKE BUOY  0850   68 67  160/ 12/ 14 1020.4R   1/ 3
DEVILS ISLAND    0900   68     210/  7/  8 1020.5S
PORT WING        0940   66     340/ 17/ 24 1021.3R
SAXON HARBOR     0940   69     200/  5/  9 1020.3S
$$

LMZ867-665-643>646-291100-
LAKE MICHIGAN

STATION/POSITION TIME  TEMP    WIND        PRES    WAVE
                       AIR SEA DIR/SP/G            HT/PER
                 (UTC) (F)     (DEG/KT/KT) (MB)    (FT/S)
CHAMBERS ISLAND  0900   60     130/  2/  3 1024.0S
N MID LAKE BUOY  0850   71 71  150/  8/ 10 1024.0R   0
NORTHPORT PIER   0900   63        CALM     1024.0S
KEWAUNEE LAKESHO 0900   60        CALM     1023.6R
SHEBOYGAN LAKESH 0900   63     330/  2/  2 1023.8R
PORT WASHINGTON  0900   64      20/  2/  3 1024.4R
ATWATER BUOY     0900   65     360/  6/  6   N/A
MILWAUKEE LAKESH 0910   67     290/  2/  2   N/A
S MID LAKE BUOY  0850   73 75   90/  4/  6 1022.7S   1
KENOSHA   LAKESH 0900   68     360/  6/  6 1023.4R
$$

TC  - TEMPERATURE IN CELSIUS
VSB - VISIBILITY IN STATUTE MILES
WCI - WIND CHILL INDEX
HX  - HEAT INDEX




USA.gov is the U.S. government's official web portal to all federal, state and local government web resources and services.